Meteo pe oră la Bolshie Eysmonty

Astăzi, 8 Mai, Sâmbătă

Timp Temperatura Precipitaţii Vânt Presiune Umiditate
00:00 +3°C° 0 mm 2 m/s 744 mmHg 92%
01:00 +3°C° 0 mm 2 m/s 745 mmHg 92%
02:00 +2°C° 0 mm 2 m/s 745 mmHg 93%
03:00 +1°C° 0 mm 3 m/s 745 mmHg 92%
04:00 +1°C° 0 mm 3 m/s 746 mmHg 92%
05:00 +1°C° 0 mm 3 m/s 746 mmHg 92%
06:00 +1°C° 0 mm 4 m/s 747 mmHg 90%
07:00 +1°C° 0 mm 4 m/s 747 mmHg 88%
08:00 +3°C° 0 mm 4 m/s 748 mmHg 85%
09:00 +4°C° 0 mm 4 m/s 748 mmHg 77%
10:00 +5°C° 0 mm 4 m/s 748 mmHg 70%
11:00 +6°C° 0 mm 4 m/s 749 mmHg 62%
12:00 +7°C° 0 mm 5 m/s 749 mmHg 59%
13:00 +8°C° 0 mm 5 m/s 749 mmHg 55%
14:00 +8°C° 0 mm 5 m/s 749 mmHg 52%
15:00 +8°C° 0.2 mm 5 m/s 749 mmHg 54%
16:00 +8°C° 0.2 mm 5 m/s 750 mmHg 56%
17:00 +8°C° 0.2 mm 5 m/s 750 mmHg 58%
18:00 +7°C° 0.2 mm 4 m/s 750 mmHg 67%
19:00 +7°C° 0.2 mm 3 m/s 751 mmHg 75%
20:00 +4°C° 0.2 mm 3 m/s 751 mmHg 84%
21:00 +3°C° 0 mm 3 m/s 751 mmHg 87%
22:00 +4°C° 0 mm 2 m/s 752 mmHg 89%
23:00 +3°C° 0 mm 2 m/s 752 mmHg 92%

Mâine, 9 Mai, Duminică

Timp Temperatura Precipitaţii Vânt Presiune Umiditate
00:00 +3°C° 0 mm 2 m/s 752 mmHg 93%
01:00 +2°C° 0 mm 2 m/s 753 mmHg 94%
02:00 +2°C° 0 mm 2 m/s 753 mmHg 94%
03:00 +2°C° 0 mm 2 m/s 753 mmHg 94%
04:00 +1°C° 0 mm 2 m/s 754 mmHg 94%
05:00 +1°C° 0 mm 2 m/s 754 mmHg 94%
06:00 +3°C° 0 mm 2 m/s 754 mmHg 88%
07:00 +5°C° 0 mm 2 m/s 755 mmHg 83%
08:00 +7°C° 0 mm 2 m/s 755 mmHg 78%
09:00 +8°C° 0 mm 2 m/s 755 mmHg 68%
10:00 +10°C° 0 mm 3 m/s 755 mmHg 59%
11:00 +11°C° 0 mm 3 m/s 755 mmHg 50%
12:00 +12°C° 0 mm 3 m/s 755 mmHg 48%
13:00 +13°C° 0 mm 4 m/s 754 mmHg 47%
14:00 +14°C° 0 mm 4 m/s 754 mmHg 46%
15:00 +14°C° 0 mm 4 m/s 754 mmHg 50%
16:00 +14°C° 0 mm 4 m/s 754 mmHg 54%
17:00 +14°C° 0 mm 3 m/s 754 mmHg 58%
18:00 +13°C° 0 mm 3 m/s 754 mmHg 62%
19:00 +12°C° 0 mm 3 m/s 754 mmHg 65%
20:00 +11°C° 0 mm 3 m/s 754 mmHg 68%
21:00 +10°C° 0 mm 3 m/s 754 mmHg 70%
22:00 +10°C° 0 mm 4 m/s 754 mmHg 72%
23:00 +8°C° 0 mm 4 m/s 754 mmHg 74%

Poimâine, 10 Mai, Luni

Timp Temperatura Precipitaţii Vânt Presiune Umiditate
00:00 +8°C° 0 mm 4 m/s 754 mmHg 76%
01:00 +7°C° 0 mm 4 m/s 754 mmHg 79%
02:00 +7°C° 0 mm 4 m/s 754 mmHg 81%
03:00 +6°C° 0 mm 4 m/s 754 mmHg 83%
04:00 +6°C° 0 mm 4 m/s 754 mmHg 84%
05:00 +6°C° 0 mm 4 m/s 754 mmHg 86%
06:00 +8°C° 0 mm 4 m/s 754 mmHg 81%
07:00 +10°C° 0 mm 5 m/s 755 mmHg 75%
08:00 +13°C° 0 mm 6 m/s 755 mmHg 69%
09:00 +14°C° 0 mm 6 m/s 755 mmHg 64%
10:00 +16°C° 0 mm 7 m/s 755 mmHg 59%
11:00 +17°C° 0 mm 8 m/s 755 mmHg 54%
12:00 +18°C° 0 mm 8 m/s 754 mmHg 54%
13:00 +18°C° 0 mm 8 m/s 754 mmHg 54%
14:00 +20°C° 0 mm 8 m/s 754 mmHg 55%
15:00 +20°C° 0 mm 7 m/s 754 mmHg 57%
16:00 +18°C° 0 mm 7 m/s 754 mmHg 59%
17:00 +18°C° 0 mm 7 m/s 753 mmHg 62%
18:00 +17°C° 0 mm 7 m/s 754 mmHg 65%
19:00 +15°C° 0 mm 6 m/s 754 mmHg 68%
20:00 +14°C° 0 mm 6 m/s 754 mmHg 71%
21:00 +14°C° 0 mm 6 m/s 754 mmHg 72%
22:00 +13°C° 0 mm 6 m/s 754 mmHg 72%
23:00 +11°C° 0 mm 6 m/s 754 mmHg 73%

11 Mai, Marţi

Timp Temperatura Precipitaţii Vânt Presiune Umiditate
00:00 +11°C° 0 mm 6 m/s 754 mmHg 74%
01:00 +10°C° 0 mm 5 m/s 754 mmHg 76%
02:00 +9°C° 0 mm 5 m/s 754 mmHg 77%
03:00 +9°C° 0 mm 5 m/s 754 mmHg 78%
04:00 +9°C° 0 mm 6 m/s 754 mmHg 79%
05:00 +8°C° 0 mm 6 m/s 754 mmHg 80%
06:00 +9°C° 0 mm 6 m/s 754 mmHg 77%
07:00 +11°C° 0 mm 7 m/s 754 mmHg 74%
08:00 +12°C° 0 mm 7 m/s 754 mmHg 71%
09:00 +13°C° 0 mm 8 m/s 753 mmHg 67%
10:00 +16°C° 0 mm 8 m/s 753 mmHg 62%
11:00 +17°C° 0 mm 9 m/s 753 mmHg 57%
12:00 +18°C° 0 mm 8 m/s 753 mmHg 56%
13:00 +20°C° 0 mm 8 m/s 753 mmHg 54%
14:00 +20°C° 0 mm 8 m/s 753 mmHg 53%
15:00 +20°C° 0 mm 8 m/s 753 mmHg 54%
16:00 +20°C° 0 mm 7 m/s 752 mmHg 55%
17:00 +18°C° 0 mm 7 m/s 752 mmHg 56%
18:00 +17°C° 0 mm 6 m/s 752 mmHg 60%
19:00 +15°C° 0 mm 6 m/s 752 mmHg 65%
20:00 +14°C° 0 mm 5 m/s 752 mmHg 69%
21:00 +13°C° 0 mm 5 m/s 752 mmHg 68%
22:00 +12°C° 0 mm 5 m/s 752 mmHg 67%
23:00 +11°C° 0 mm 6 m/s 752 mmHg 66%

12 Mai, Miercuri

Timp Temperatura Precipitaţii Vânt Presiune Umiditate
00:00 +10°C° 0 mm 5 m/s 752 mmHg 69%
01:00 +10°C° 0 mm 4 m/s 752 mmHg 72%
02:00 +8°C° 0 mm 4 m/s 751 mmHg 76%
03:00 +8°C° 0 mm 4 m/s 751 mmHg 80%
04:00 +8°C° 0 mm 4 m/s 751 mmHg 83%
05:00 +8°C° 0 mm 4 m/s 751 mmHg 87%
06:00 +10°C° 0 mm 5 m/s 751 mmHg 85%
07:00 +12°C° 0 mm 5 m/s 751 mmHg 82%
08:00 +14°C° 0 mm 6 m/s 751 mmHg 79%
09:00 +15°C° 0 mm 6 m/s 751 mmHg 73%
10:00 +17°C° 0 mm 6 m/s 750 mmHg 66%
11:00 +19°C° 0 mm 6 m/s 750 mmHg 59%
12:00 +19°C° 0 mm 6 m/s 750 mmHg 58%
13:00 +20°C° 0 mm 6 m/s 749 mmHg 57%
14:00 +20°C° 0 mm 6 m/s 749 mmHg 56%
15:00 +19°C° 0.1 mm 6 m/s 749 mmHg 63%
16:00 +16°C° 0.1 mm 7 m/s 749 mmHg 71%
17:00 +15°C° 0.1 mm 7 m/s 749 mmHg 79%
18:00 +14°C° 0 mm 6 m/s 749 mmHg 80%
19:00 +12°C° 0 mm 5 m/s 749 mmHg 81%
20:00 +10°C° 0 mm 5 m/s 749 mmHg 82%
21:00 +9°C° 0 mm 5 m/s 749 mmHg 84%
22:00 +9°C° 0 mm 5 m/s 749 mmHg 87%
23:00 +8°C° 0 mm 5 m/s 749 mmHg 89%

13 Mai, Joi

Timp Temperatura Precipitaţii Vânt Presiune Umiditate
00:00 +8°C° 0 mm 4 m/s 749 mmHg 91%
01:00 +7°C° 0 mm 4 m/s 748 mmHg 92%
02:00 +7°C° 0 mm 4 m/s 748 mmHg 93%
03:00 +7°C° 0 mm 4 m/s 748 mmHg 93%
04:00 +7°C° 0 mm 4 m/s 748 mmHg 93%
05:00 +8°C° 0 mm 3 m/s 748 mmHg 93%
06:00 +8°C° 0 mm 4 m/s 747 mmHg 89%
07:00 +10°C° 0 mm 4 m/s 747 mmHg 84%
08:00 +10°C° 0 mm 5 m/s 747 mmHg 79%
09:00 +11°C° 0.1 mm 4 m/s 746 mmHg 81%
10:00 +11°C° 0.1 mm 4 m/s 746 mmHg 83%
11:00 +11°C° 0.1 mm 3 m/s 746 mmHg 84%
12:00 +10°C° 0.8 mm 3 m/s 745 mmHg 87%
13:00 +10°C° 0.8 mm 3 m/s 745 mmHg 89%
14:00 +10°C° 0.8 mm 2 m/s 745 mmHg 91%
15:00 +10°C° 0.2 mm 2 m/s 745 mmHg 85%
16:00 +12°C° 0.2 mm 2 m/s 744 mmHg 80%
17:00 +13°C° 0.2 mm 2 m/s 744 mmHg 75%
18:00 +11°C° 0.1 mm 3 m/s 744 mmHg 79%
19:00 +10°C° 0.1 mm 3 m/s 744 mmHg 84%
20:00 +10°C° 0.1 mm 3 m/s 744 mmHg 88%
21:00 +9°C° 0 mm 3 m/s 744 mmHg 91%
22:00 +9°C° 0 mm 3 m/s 744 mmHg 93%
23:00 +8°C° 0 mm 3 m/s 744 mmHg 96%
Arată mai mult

Formular de consimțământ

Meteoprog și furnizorii noștri de servicii pot stoca și accesa date personale, precum cookies, identificatori de dispozitiv sau alte tehnologii similare pe dispozitivul dumneavoastră și procesa astfel de date pentru a personaliza conținutul și reclamele, dar și pentru a oferi caracteristici de social media și pentru a analiza traficul.

  • Stocarea și/sau accesarea informațiilor pe dispozitivul dumneavoastră

    Cookies, identificatori de dispozitiv sau alte informații pot fi stocate sau accesate pe dispozitiv în scopurile indicate mai sus.

  • Reclame și conținut personalizat, evaluarea reclamelor și a conținutului, informații despre audiențe și dezvoltarea produselor

    Reclamele și conținutul pot fi personalizate pe baza unui profil. Pot fi adăugate date suplimentare pentru a personaliza mai bine reclamele și conținutul. Performanța reclamelor și conținutului poate fi măsurată. Pot fi obținute informații despre utilizatorii care au văzut reclamele și conținutul. Aceste date pot fi utilizate pentru a dezvolta sau îmbunătăți experiența utilizatorilor, sistemele și software-ul.

Dând clic pe ‘Sunt de acord’, permiteți utilizarea cookie-urilor menționate, a identificatorilor de dispozitiv, balizelor web sau altor tehnologii similare. Setările pot fi modificate din browser-ul dispozitivului dumneavoastră.

În anumite scopuri, interesele legitime pot prima asupra consimțământului. Puteți citi mai multe informații în acest sens în Politica privind Confidențialitatea Datelor și Cookie.